Hourly Data Report for January 19, 2020

TORONTO CITY
ONTARIO
Current Station Operator: ECCC - MSC

43°40'00.000" N
79°24'00.000" W
112.50 m
6158355
71508
XTO

Download Data

Hourly Data (January 2020)
Hourly Data Report for January 19, 2020
TIME
LST
Temp Definition
°C
Dew Point Definition
°C
Rel Hum Definition
%
Precip. Amount Definition
mm

Wind Dir Definition
10's deg

Wind Spd Definition
km/h
Visibility Definition
km
Stn Press Definition
kPa
Hmdx Definition


Wind Chill Definition


Weather Definition


00:00 1.7 -2.4 74 0.0       98.65     LegendNANA
01:00 1.3 -2.9 74 0.0       98.67     LegendNANA
02:00 1.1 -3.0 74 0.0       98.73     LegendNANA
03:00 0.9 -3.1 75 0.0       98.81     LegendNANA
04:00 1.0 -3.0 75 0.0       98.91     LegendNANA
05:00 0.1 -1.8 87 0.3       99.01     LegendNANA
06:00 -0.2 -3.4 79 0.0       99.15     LegendNANA
07:00 -0.9 -3.2 85 0.0       99.26     LegendNANA
08:00 -1.0 -5.1 74 0.0       99.38     LegendNANA
09:00 -2.6 -7.0 72 0.0       99.51     LegendNANA
10:00 -3.7 -9.5 64 0.0       99.61     LegendNANA
11:00 -5.2 -10.2 68 0.0       99.80     LegendNANA
12:00 -6.5 -11.6 67 0.0       99.86     LegendNANA
13:00 -6.4 -12.5 62 0.0       99.95     LegendNANA
14:00 -6.4 -12.3 63 0.0       100.01     LegendNANA
15:00 -5.8 -12.0 62 0.0       100.12     LegendNANA
16:00 -6.7 -12.1 66 0.0       100.29     LegendNANA
17:00 -7.7 -13.0 65 0.0       100.45     LegendNANA
18:00 -8.1 -13.6 65 0.0       100.61     LegendNANA
19:00 -8.0 -13.7 63 0.0       100.73     LegendNANA
20:00 -7.7 -13.6 62 0.0       100.82     LegendNANA
21:00 -7.6 -13.5 63 0.0       100.90     LegendNANA
22:00 -7.9 -14.2 61 0.0       101.00     LegendNANA
23:00 -9.0 -15.9 57 0.0       101.09     LegendNANA

Notes on Data Quality.

Legend

  • E = Estimated
  • M = Missing
  • NA = Not Available*
  • [empty] = Indicates an unobserved value
Date modified: